Meteo pe oră la Bolshoe Ivahnovo

Astăzi, 19 Mai, Miercuri

Timp Temperatura Precipitaţii Vânt Presiune Umiditate
00:00 +18°C° 0 mm 4 m/s 731 mmHg 78%
01:00 +17°C° 0 mm 4 m/s 731 mmHg 83%
02:00 +17°C° 0 mm 4 m/s 731 mmHg 88%
03:00 +17°C° 0 mm 3 m/s 731 mmHg 90%
04:00 +16°C° 0 mm 3 m/s 731 mmHg 91%
05:00 +16°C° 0 mm 3 m/s 731 mmHg 92%
06:00 +16°C° 0.1 mm 3 m/s 731 mmHg 90%
07:00 +17°C° 0.1 mm 4 m/s 731 mmHg 87%
08:00 +17°C° 0.1 mm 4 m/s 732 mmHg 85%
09:00 +17°C° 0.2 mm 5 m/s 732 mmHg 77%
10:00 +20°C° 0.2 mm 5 m/s 732 mmHg 70%
11:00 +21°C° 0.2 mm 5 m/s 732 mmHg 62%
12:00 +21°C° 0.5 mm 5 m/s 732 mmHg 63%
13:00 +21°C° 0.5 mm 5 m/s 733 mmHg 64%
14:00 +21°C° 0.5 mm 5 m/s 733 mmHg 65%
15:00 +21°C° 0.2 mm 5 m/s 733 mmHg 67%
16:00 +20°C° 0.2 mm 4 m/s 733 mmHg 69%
17:00 +20°C° 0.2 mm 4 m/s 733 mmHg 71%
18:00 +19°C° 0.2 mm 3 m/s 733 mmHg 78%
19:00 +17°C° 0.2 mm 2 m/s 733 mmHg 86%
20:00 +15°C° 0.2 mm 2 m/s 733 mmHg 93%
21:00 +15°C° 0 mm 2 m/s 733 mmHg 94%
22:00 +14°C° 0 mm 2 m/s 733 mmHg 95%
23:00 +14°C° 0 mm 1 m/s 733 mmHg 96%

Mâine, 20 Mai, Joi

Timp Temperatura Precipitaţii Vânt Presiune Umiditate
00:00 +14°C° 0 mm 1 m/s 732 mmHg 96%
01:00 +13°C° 0 mm 1 m/s 732 mmHg 96%
02:00 +13°C° 0 mm 1 m/s 732 mmHg 96%
03:00 +14°C° 0 mm 1 m/s 732 mmHg 96%
04:00 +14°C° 0 mm 1 m/s 732 mmHg 96%
05:00 +14°C° 0 mm 1 m/s 732 mmHg 95%
06:00 +15°C° 0.2 mm 1 m/s 731 mmHg 95%
07:00 +15°C° 0.2 mm 2 m/s 731 mmHg 96%
08:00 +15°C° 0.2 mm 2 m/s 731 mmHg 96%
09:00 +16°C° 0.7 mm 3 m/s 731 mmHg 88%
10:00 +17°C° 0.7 mm 4 m/s 730 mmHg 80%
11:00 +18°C° 0.7 mm 4 m/s 730 mmHg 72%
12:00 +18°C° 0.3 mm 4 m/s 730 mmHg 74%
13:00 +17°C° 0.3 mm 4 m/s 731 mmHg 76%
14:00 +15°C° 0.3 mm 4 m/s 731 mmHg 78%
15:00 +14°C° 1 mm 3 m/s 730 mmHg 83%
16:00 +13°C° 1 mm 3 m/s 730 mmHg 88%
17:00 +13°C° 1 mm 2 m/s 730 mmHg 93%
18:00 +13°C° 1.3 mm 2 m/s 731 mmHg 94%
19:00 +11°C° 1.3 mm 3 m/s 731 mmHg 96%
20:00 +11°C° 1.3 mm 3 m/s 731 mmHg 97%
21:00 +10°C° 0.1 mm 4 m/s 732 mmHg 96%
22:00 +10°C° 0.1 mm 4 m/s 733 mmHg 96%
23:00 +8°C° 0.1 mm 4 m/s 733 mmHg 95%

Poimâine, 21 Mai, Vineri

Timp Temperatura Precipitaţii Vânt Presiune Umiditate
00:00 +8°C° 0.1 mm 4 m/s 734 mmHg 95%
01:00 +8°C° 0.1 mm 4 m/s 735 mmHg 95%
02:00 +8°C° 0.1 mm 4 m/s 735 mmHg 95%
03:00 +8°C° 0 mm 3 m/s 736 mmHg 94%
04:00 +8°C° 0 mm 3 m/s 736 mmHg 94%
05:00 +8°C° 0 mm 2 m/s 737 mmHg 94%
06:00 +9°C° 0 mm 2 m/s 737 mmHg 88%
07:00 +11°C° 0 mm 3 m/s 738 mmHg 83%
08:00 +12°C° 0 mm 3 m/s 738 mmHg 77%
09:00 +13°C° 0 mm 3 m/s 738 mmHg 66%
10:00 +16°C° 0 mm 3 m/s 739 mmHg 56%
11:00 +17°C° 0 mm 3 m/s 739 mmHg 45%
12:00 +17°C° 0 mm 3 m/s 739 mmHg 44%
13:00 +18°C° 0 mm 4 m/s 739 mmHg 43%
14:00 +18°C° 0 mm 4 m/s 739 mmHg 42%
15:00 +18°C° 0 mm 4 m/s 739 mmHg 44%
16:00 +18°C° 0 mm 3 m/s 739 mmHg 46%
17:00 +17°C° 0 mm 3 m/s 739 mmHg 49%
18:00 +14°C° 0 mm 3 m/s 739 mmHg 56%
19:00 +13°C° 0 mm 2 m/s 740 mmHg 63%
20:00 +10°C° 0 mm 2 m/s 740 mmHg 71%
21:00 +9°C° 0 mm 2 m/s 740 mmHg 74%
22:00 +9°C° 0 mm 1 m/s 741 mmHg 77%
23:00 +8°C° 0 mm 1 m/s 741 mmHg 80%

22 Mai, Sâmbătă

Timp Temperatura Precipitaţii Vânt Presiune Umiditate
00:00 +8°C° 0 mm 1 m/s 741 mmHg 83%
01:00 +7°C° 0 mm 1 m/s 741 mmHg 85%
02:00 +7°C° 0 mm 1 m/s 741 mmHg 88%
03:00 +6°C° 0 mm 0 m/s 742 mmHg 85%
04:00 +7°C° 0 mm 0 m/s 742 mmHg 82%
05:00 +8°C° 0 mm 0 m/s 742 mmHg 79%
06:00 +11°C° 0 mm 1 m/s 742 mmHg 71%
07:00 +13°C° 0 mm 1 m/s 742 mmHg 62%
08:00 +15°C° 0 mm 1 m/s 742 mmHg 54%
09:00 +16°C° 0 mm 2 m/s 742 mmHg 49%
10:00 +16°C° 0 mm 2 m/s 742 mmHg 45%
11:00 +17°C° 0 mm 2 m/s 742 mmHg 41%
12:00 +18°C° 0 mm 3 m/s 742 mmHg 39%
13:00 +19°C° 0 mm 3 m/s 742 mmHg 38%
14:00 +20°C° 0 mm 3 m/s 741 mmHg 36%
15:00 +19°C° 0 mm 3 m/s 741 mmHg 40%
16:00 +19°C° 0 mm 3 m/s 741 mmHg 43%
17:00 +19°C° 0 mm 2 m/s 741 mmHg 47%
18:00 +17°C° 0 mm 2 m/s 741 mmHg 56%
19:00 +15°C° 0 mm 1 m/s 741 mmHg 64%
20:00 +13°C° 0 mm 1 m/s 740 mmHg 73%
21:00 +12°C° 0 mm 1 m/s 740 mmHg 77%
22:00 +12°C° 0 mm 2 m/s 740 mmHg 81%
23:00 +10°C° 0 mm 2 m/s 740 mmHg 85%

23 Mai, Duminică

Timp Temperatura Precipitaţii Vânt Presiune Umiditate
00:00 +10°C° 0 mm 2 m/s 740 mmHg 88%
01:00 +10°C° 0 mm 2 m/s 740 mmHg 92%
02:00 +9°C° 0 mm 2 m/s 740 mmHg 96%
03:00 +10°C° 0 mm 2 m/s 740 mmHg 94%
04:00 +10°C° 0 mm 2 m/s 739 mmHg 93%
05:00 +10°C° 0 mm 2 m/s 739 mmHg 92%
06:00 +12°C° 0 mm 3 m/s 738 mmHg 85%
07:00 +13°C° 0 mm 3 m/s 738 mmHg 78%
08:00 +15°C° 0 mm 4 m/s 737 mmHg 71%
09:00 +15°C° 0.1 mm 4 m/s 737 mmHg 71%
10:00 +17°C° 0.1 mm 4 m/s 736 mmHg 72%
11:00 +18°C° 0.1 mm 4 m/s 736 mmHg 72%
12:00 +17°C° 0.1 mm 4 m/s 735 mmHg 77%
13:00 +17°C° 0.1 mm 4 m/s 735 mmHg 82%
14:00 +16°C° 0.1 mm 3 m/s 734 mmHg 87%
15:00 +17°C° 0 mm 3 m/s 734 mmHg 84%
16:00 +17°C° 0 mm 3 m/s 733 mmHg 80%
17:00 +18°C° 0 mm 4 m/s 733 mmHg 76%
18:00 +17°C° 0.3 mm 4 m/s 733 mmHg 81%
19:00 +15°C° 0.3 mm 4 m/s 733 mmHg 85%
20:00 +14°C° 0.3 mm 5 m/s 733 mmHg 89%
21:00 +13°C° 0.1 mm 4 m/s 733 mmHg 91%
22:00 +11°C° 0.1 mm 3 m/s 734 mmHg 94%
23:00 +10°C° 0.1 mm 2 m/s 735 mmHg 96%

24 Mai, Luni

Timp Temperatura Precipitaţii Vânt Presiune Umiditate
00:00 +10°C° 0 mm 2 m/s 735 mmHg 96%
01:00 +9°C° 0 mm 2 m/s 735 mmHg 97%
02:00 +9°C° 0 mm 2 m/s 736 mmHg 98%
03:00 +9°C° 0 mm 2 m/s 736 mmHg 97%
04:00 +10°C° 0 mm 2 m/s 736 mmHg 96%
05:00 +10°C° 0 mm 2 m/s 736 mmHg 96%
06:00 +12°C° 0.1 mm 2 m/s 737 mmHg 91%
07:00 +13°C° 0.1 mm 2 m/s 737 mmHg 86%
08:00 +12°C° 0.1 mm 3 m/s 737 mmHg 82%
09:00 +13°C° 0.1 mm 3 m/s 737 mmHg 75%
10:00 +13°C° 0.1 mm 3 m/s 738 mmHg 69%
11:00 +14°C° 0.1 mm 3 m/s 738 mmHg 63%
12:00 +16°C° 0 mm 3 m/s 738 mmHg 55%
13:00 +17°C° 0 mm 2 m/s 738 mmHg 47%
14:00 +18°C° 0 mm 2 m/s 738 mmHg 39%
15:00 +18°C° 0 mm 2 m/s 738 mmHg 41%
16:00 +18°C° 0 mm 3 m/s 738 mmHg 43%
17:00 +18°C° 0 mm 3 m/s 738 mmHg 45%
18:00 +16°C° 0 mm 3 m/s 738 mmHg 54%
19:00 +14°C° 0 mm 2 m/s 738 mmHg 64%
20:00 +12°C° 0 mm 2 m/s 739 mmHg 73%
21:00 +10°C° 0.2 mm 2 m/s 739 mmHg 79%
22:00 +10°C° 0.2 mm 2 m/s 739 mmHg 84%
23:00 +9°C° 0.2 mm 2 m/s 739 mmHg 90%
Arată mai mult

Formular de consimțământ

Meteoprog și furnizorii noștri de servicii pot stoca și accesa date personale, precum cookies, identificatori de dispozitiv sau alte tehnologii similare pe dispozitivul dumneavoastră și procesa astfel de date pentru a personaliza conținutul și reclamele, dar și pentru a oferi caracteristici de social media și pentru a analiza traficul.

  • Stocarea și/sau accesarea informațiilor pe dispozitivul dumneavoastră

    Cookies, identificatori de dispozitiv sau alte informații pot fi stocate sau accesate pe dispozitiv în scopurile indicate mai sus.

  • Reclame și conținut personalizat, evaluarea reclamelor și a conținutului, informații despre audiențe și dezvoltarea produselor

    Reclamele și conținutul pot fi personalizate pe baza unui profil. Pot fi adăugate date suplimentare pentru a personaliza mai bine reclamele și conținutul. Performanța reclamelor și conținutului poate fi măsurată. Pot fi obținute informații despre utilizatorii care au văzut reclamele și conținutul. Aceste date pot fi utilizate pentru a dezvolta sau îmbunătăți experiența utilizatorilor, sistemele și software-ul.

Dând clic pe ‘Sunt de acord’, permiteți utilizarea cookie-urilor menționate, a identificatorilor de dispozitiv, balizelor web sau altor tehnologii similare. Setările pot fi modificate din browser-ul dispozitivului dumneavoastră.

În anumite scopuri, interesele legitime pot prima asupra consimțământului. Puteți citi mai multe informații în acest sens în Politica privind Confidențialitatea Datelor și Cookie.